Time,TemperatureF,DewpointF,PressureIn,WindDirection,WindDirectionDegrees,WindSpeedMPH,WindSpeedGustMPH,Humidity,HourlyPrecipIn,Conditions,Clouds,dailyrainin,SoftwareType,DateUTC
2013-09-10 00:10:00,66.2,63.2,29.87,SW,225,0.0,-999.0,90,-99.99,,,0.00,Acu-Link.com,2013-09-10 04:10:00,
2013-09-10 00:26:00,65.8,62.8,29.86,SW,225,0.0,-999.0,90,-99.99,,,0.00,Acu-Link.com,2013-09-10 04:26:00,
2013-09-10 00:41:00,65.1,62.1,29.86,NW,315,0.0,-999.0,90,-99.99,,,0.00,Acu-Link.com,2013-09-10 04:41:00,
2013-09-10 00:56:00,65.3,62.3,29.86,NW,315,0.0,-999.0,90,-99.99,,,0.00,Acu-Link.com,2013-09-10 04:56:00,
2013-09-10 01:12:00,65.3,62.3,29.86,West,270,0.0,-999.0,90,-99.99,,,0.00,Acu-Link.com,2013-09-10 05:12:00,
2013-09-10 01:27:00,65.1,62.1,29.86,SSW,202,0.0,-999.0,90,-99.99,,,0.00,Acu-Link.com,2013-09-10 05:27:00,
2013-09-10 01:42:00,65.1,62.1,29.87,West,270,0.0,-999.0,90,-99.99,,,0.00,Acu-Link.com,2013-09-10 05:42:00,
2013-09-10 01:58:00,64.9,61.9,29.88,West,270,0.0,-999.0,90,-99.99,,,0.00,Acu-Link.com,2013-09-10 05:58:00,
2013-09-10 02:13:00,64.9,61.9,29.88,SSW,202,0.0,-999.0,90,-99.99,,,0.00,Acu-Link.com,2013-09-10 06:13:00,
2013-09-10 02:28:00,64.8,61.8,29.88,SSW,202,0.0,-999.0,90,-99.99,,,0.00,Acu-Link.com,2013-09-10 06:28:00,
2013-09-10 02:43:00,64.4,61.4,29.88,ENE,67,0.0,-999.0,90,-99.99,,,0.00,Acu-Link.com,2013-09-10 06:43:00,
2013-09-10 02:59:00,64.4,61.4,29.88,NNW,337,0.0,-999.0,90,-99.99,,,0.00,Acu-Link.com,2013-09-10 06:59:00,
2013-09-10 03:14:00,64.6,61.6,29.88,NW,315,0.0,-999.0,90,-99.99,,,0.00,Acu-Link.com,2013-09-10 07:14:00,
2013-09-10 03:29:00,64.6,61.6,29.88,SSW,202,0.0,-999.0,90,-99.99,,,0.00,Acu-Link.com,2013-09-10 07:29:00,
2013-09-10 03:45:00,64.6,61.6,29.89,WNW,292,0.0,-999.0,90,-99.99,,,0.00,Acu-Link.com,2013-09-10 07:45:00,
2013-09-10 04:00:00,64.6,61.9,29.88,East,90,0.0,-999.0,91,-99.99,,,0.00,Acu-Link.com,2013-09-10 08:00:00,
2013-09-10 04:15:00,64.4,61.7,29.89,NNW,337,0.0,-999.0,91,-99.99,,,0.00,Acu-Link.com,2013-09-10 08:15:00,
2013-09-10 04:30:00,64.2,61.5,29.89,West,270,0.0,-999.0,91,-99.99,,,0.00,Acu-Link.com,2013-09-10 08:30:00,
2013-09-10 04:45:00,64.0,61.3,29.89,SSW,202,0.0,-999.0,91,-99.99,,,0.00,Acu-Link.com,2013-09-10 08:45:00,
2013-09-10 05:00:00,64.0,61.3,29.89,SW,225,0.0,-999.0,91,-99.99,,,0.00,Acu-Link.com,2013-09-10 09:00:00,
2013-09-10 05:15:00,63.7,61.0,29.89,NW,315,0.0,-999.0,91,-99.99,,,0.00,Acu-Link.com,2013-09-10 09:15:00,
2013-09-10 05:30:00,64.2,61.5,29.89,SW,225,0.0,-999.0,91,-99.99,,,0.00,Acu-Link.com,2013-09-10 09:30:00,
2013-09-10 05:46:00,63.7,61.0,29.89,West,270,0.0,-999.0,91,-99.99,,,0.00,Acu-Link.com,2013-09-10 09:46:00,
2013-09-10 06:01:00,63.7,61.0,29.89,SSW,202,0.0,-999.0,91,-99.99,,,0.00,Acu-Link.com,2013-09-10 10:01:00,
2013-09-10 06:16:00,63.3,60.6,29.90,NW,315,0.0,-999.0,91,-99.99,,,0.00,Acu-Link.com,2013-09-10 10:16:00,
2013-09-10 06:31:00,63.9,61.5,29.90,NW,315,0.0,-999.0,92,-99.99,,,0.00,Acu-Link.com,2013-09-10 10:31:00,
2013-09-10 06:46:00,63.1,60.7,29.91,NNE,22,0.0,-999.0,92,-99.99,,,0.00,Acu-Link.com,2013-09-10 10:46:00,
2013-09-10 07:02:00,63.5,61.1,29.91,East,90,0.0,-999.0,92,-99.99,,,0.00,Acu-Link.com,2013-09-10 11:02:00,
2013-09-10 07:17:00,63.7,61.3,29.91,ESE,112,0.0,-999.0,92,-99.99,,,0.00,Acu-Link.com,2013-09-10 11:17:00,
2013-09-10 07:32:00,63.7,61.3,29.92,East,90,0.0,-999.0,92,-99.99,,,0.00,Acu-Link.com,2013-09-10 11:32:00,
2013-09-10 07:47:00,63.9,61.5,29.92,East,90,0.0,-999.0,92,-99.99,,,0.00,Acu-Link.com,2013-09-10 11:47:00,
2013-09-10 08:03:00,64.2,61.8,29.93,East,90,0.0,-999.0,92,-99.99,,,0.00,Acu-Link.com,2013-09-10 12:03:00,
2013-09-10 08:18:00,64.8,62.4,29.93,South,180,0.0,-999.0,92,-99.99,,,0.00,Acu-Link.com,2013-09-10 12:18:00,
2013-09-10 08:33:00,65.5,63.1,29.93,NE,45,0.0,-999.0,92,-99.99,,,0.00,Acu-Link.com,2013-09-10 12:33:00,
2013-09-10 08:49:00,66.0,63.6,29.93,SSE,157,0.0,-999.0,92,-99.99,,,0.00,Acu-Link.com,2013-09-10 12:49:00,
2013-09-10 09:04:00,67.1,64.7,29.94,SSE,157,0.0,-999.0,92,-99.99,,,0.00,Acu-Link.com,2013-09-10 13:04:00,
2013-09-10 09:34:00,69.3,66.6,29.95,South,180,0.0,-999.0,91,-99.99,,,0.00,Acu-Link.com,2013-09-10 13:34:00,
2013-09-10 09:49:00,70.3,67.5,29.96,WNW,292,0.0,-999.0,91,-99.99,,,0.00,Acu-Link.com,2013-09-10 13:49:00,
2013-09-10 10:05:00,71.4,68.3,29.96,NE,45,0.0,-999.0,90,-99.99,,,0.00,Acu-Link.com,2013-09-10 14:05:00,
2013-09-10 10:20:00,72.9,69.1,29.96,East,90,2.2,-999.0,88,-99.99,,,0.00,Acu-Link.com,2013-09-10 14:20:00,
2013-09-10 10:35:00,72.9,69.8,29.96,West,270,0.0,-999.0,90,-99.99,,,0.00,Acu-Link.com,2013-09-10 14:35:00,
2013-09-10 10:50:00,73.8,70.3,29.96,ENE,67,0.0,-999.0,89,-99.99,,,0.00,Acu-Link.com,2013-09-10 14:50:00,
2013-09-10 11:05:00,76.6,68.5,29.95,SW,225,1.7,-999.0,76,-99.99,,,0.00,Acu-Link.com,2013-09-10 15:05:00,
2013-09-10 11:21:00,76.5,68.0,29.96,SSW,202,2.7,-999.0,75,-99.99,,,0.00,Acu-Link.com,2013-09-10 15:21:00,
2013-09-10 11:36:00,76.5,68.7,29.95,WSW,247,2.2,-999.0,77,-99.99,,,0.00,Acu-Link.com,2013-09-10 15:36:00,
2013-09-10 11:51:00,77.0,68.1,29.95,WNW,292,2.2,-999.0,74,-99.99,,,0.00,Acu-Link.com,2013-09-10 15:51:00,
2013-09-10 12:06:00,78.8,68.6,29.95,SSE,157,0.0,-999.0,71,-99.99,,,0.00,Acu-Link.com,2013-09-10 16:06:00,
2013-09-10 12:21:00,79.5,68.8,29.95,SW,225,1.7,-999.0,70,-99.99,,,0.00,Acu-Link.com,2013-09-10 16:21:00,
2013-09-10 12:37:00,78.1,68.7,29.94,SW,225,0.0,-999.0,73,-99.99,,,0.00,Acu-Link.com,2013-09-10 16:37:00,
2013-09-10 12:52:00,77.4,70.4,29.94,SW,225,0.0,-999.0,79,-99.99,,,0.00,Acu-Link.com,2013-09-10 16:52:00,
2013-09-10 13:07:00,79.2,69.0,29.94,SSW,202,3.7,-999.0,71,-99.99,,,0.00,Acu-Link.com,2013-09-10 17:07:00,
2013-09-10 13:22:00,79.7,69.9,29.94,South,180,1.1,-999.0,72,-99.99,,,0.00,Acu-Link.com,2013-09-10 17:22:00,
2013-09-10 13:38:00,80.1,69.8,29.94,SSW,202,2.7,-999.0,71,-99.99,,,0.00,Acu-Link.com,2013-09-10 17:38:00,
2013-09-10 13:53:00,80.6,68.6,29.94,SSW,202,2.2,-999.0,67,-99.99,,,0.00,Acu-Link.com,2013-09-10 17:53:00,
2013-09-10 14:08:00,80.6,69.0,29.94,SSW,202,3.2,-999.0,68,-99.99,,,0.00,Acu-Link.com,2013-09-10 18:08:00,
2013-09-10 14:24:00,79.5,69.3,29.93,SSW,202,2.2,-999.0,71,-99.99,,,0.00,Acu-Link.com,2013-09-10 18:24:00,
2013-09-10 14:39:00,80.2,69.1,29.93,ESE,112,0.0,-999.0,69,-99.99,,,0.00,Acu-Link.com,2013-09-10 18:39:00,
2013-09-10 14:54:00,79.9,68.8,29.92,South,180,2.7,-999.0,69,-99.99,,,0.00,Acu-Link.com,2013-09-10 18:54:00,
2013-09-10 15:10:00,79.9,70.0,29.91,SSW,202,2.7,-999.0,72,-99.99,,,0.00,Acu-Link.com,2013-09-10 19:10:00,
2013-09-10 15:25:00,79.9,68.4,29.91,SW,225,4.2,-999.0,68,-99.99,,,0.00,Acu-Link.com,2013-09-10 19:25:00,
2013-09-10 15:40:00,79.9,67.9,29.90,SSW,202,3.2,-999.0,67,-99.99,,,0.00,Acu-Link.com,2013-09-10 19:40:00,
2013-09-10 15:55:00,79.9,69.2,29.90,NE,45,1.7,-999.0,70,-99.99,,,0.00,Acu-Link.com,2013-09-10 19:55:00,
2013-09-10 16:11:00,80.4,69.7,29.90,SSW,202,2.2,-999.0,70,-99.99,,,0.00,Acu-Link.com,2013-09-10 20:11:00,
2013-09-10 16:26:00,79.0,69.2,29.89,West,270,0.0,-999.0,72,-99.99,,,0.00,Acu-Link.com,2013-09-10 20:26:00,
2013-09-10 16:41:00,79.3,68.6,29.88,South,180,0.0,-999.0,70,-99.99,,,0.00,Acu-Link.com,2013-09-10 20:41:00,
2013-09-10 16:57:00,79.3,69.5,29.89,SSW,202,1.1,-999.0,72,-99.99,,,0.00,Acu-Link.com,2013-09-10 20:57:00,
2013-09-10 17:12:00,79.2,69.4,29.88,ENE,67,0.0,-999.0,72,-99.99,,,0.00,Acu-Link.com,2013-09-10 21:12:00,
2013-09-10 17:27:00,80.4,68.0,29.88,ESE,112,0.0,-999.0,66,-99.99,,,0.00,Acu-Link.com,2013-09-10 21:27:00,
2013-09-10 17:42:00,78.8,68.2,29.88,SSW,202,2.2,-999.0,70,-99.99,,,0.00,Acu-Link.com,2013-09-10 21:42:00,
2013-09-10 17:57:00,77.9,68.9,29.88,South,180,0.0,-999.0,74,-99.99,,,0.00,Acu-Link.com,2013-09-10 21:57:00,
2013-09-10 18:13:00,77.4,69.2,29.87,SW,225,0.0,-999.0,76,-99.99,,,0.00,Acu-Link.com,2013-09-10 22:13:00,
2013-09-10 18:28:00,77.0,68.5,29.87,SSW,202,0.0,-999.0,75,-99.99,,,0.00,Acu-Link.com,2013-09-10 22:28:00,
2013-09-10 18:43:00,76.5,69.5,29.87,NE,45,0.0,-999.0,79,-99.99,,,0.00,Acu-Link.com,2013-09-10 22:43:00,
2013-09-10 18:58:00,75.9,69.3,29.88,NE,45,0.0,-999.0,80,-99.99,,,0.00,Acu-Link.com,2013-09-10 22:58:00,
2013-09-10 19:14:00,75.2,69.7,29.88,SW,225,0.0,-999.0,83,-99.99,,,0.00,Acu-Link.com,2013-09-10 23:14:00,
2013-09-10 19:29:00,74.3,69.8,29.89,WNW,292,0.0,-999.0,86,-99.99,,,0.00,Acu-Link.com,2013-09-10 23:29:00,
2013-09-10 19:44:00,73.0,68.9,29.88,WNW,292,0.0,-999.0,87,-99.99,,,0.00,Acu-Link.com,2013-09-10 23:44:00,
2013-09-10 19:59:00,72.1,68.3,29.89,East,90,0.0,-999.0,88,-99.99,,,0.00,Acu-Link.com,2013-09-10 23:59:00,
2013-09-10 20:14:00,71.2,67.5,29.90,NNW,337,0.0,-999.0,88,-99.99,,,0.00,Acu-Link.com,2013-09-11 00:14:00,
2013-09-10 20:45:00,70.5,67.1,29.91,NW,315,0.0,-999.0,89,-99.99,,,0.00,Acu-Link.com,2013-09-11 00:45:00,
2013-09-10 21:00:00,70.5,67.1,29.91,NW,315,0.0,-999.0,89,-99.99,,,0.00,Acu-Link.com,2013-09-11 01:00:00,
2013-09-10 21:15:00,70.3,66.9,29.92,NW,315,0.0,-999.0,89,-99.99,,,0.00,Acu-Link.com,2013-09-11 01:15:00,
2013-09-10 21:30:00,70.0,66.6,29.93,NW,315,0.0,-999.0,89,-99.99,,,0.00,Acu-Link.com,2013-09-11 01:30:00,
2013-09-10 21:46:00,70.0,66.6,29.93,NW,315,0.0,-999.0,89,-99.99,,,0.00,Acu-Link.com,2013-09-11 01:46:00,
2013-09-10 22:01:00,69.4,66.0,29.94,West,270,0.0,-999.0,89,-99.99,,,0.00,Acu-Link.com,2013-09-11 02:01:00,
2013-09-10 22:16:00,69.4,66.0,29.94,SW,225,0.0,-999.0,89,-99.99,,,0.00,Acu-Link.com,2013-09-11 02:16:00,
2013-09-10 22:31:00,69.3,65.9,29.94,WSW,247,0.0,-999.0,89,-99.99,,,0.00,Acu-Link.com,2013-09-11 02:31:00,
2013-09-10 22:47:00,68.5,65.1,29.94,West,270,0.0,-999.0,89,-99.99,,,0.00,Acu-Link.com,2013-09-11 02:47:00,
2013-09-10 23:02:00,68.2,65.1,29.94,North,0,0.0,-999.0,90,-99.99,,,0.00,Acu-Link.com,2013-09-11 03:02:00,
2013-09-10 23:17:00,68.4,65.3,29.94,North,0,0.0,-999.0,90,-99.99,,,0.00,Acu-Link.com,2013-09-11 03:17:00,
2013-09-10 23:32:00,68.2,65.1,29.94,North,0,0.0,-999.0,90,-99.99,,,0.00,Acu-Link.com,2013-09-11 03:32:00,
2013-09-10 23:48:00,68.0,65.0,29.94,North,0,0.0,-999.0,90,-99.99,,,0.00,Acu-Link.com,2013-09-11 03:48:00,